Location: Poughquag
(41.6090°N, 73.6820°W)
Time: 21:58:16
(UTC-05:00)

N. Korean satellite - Pass Details

Date: 31 January 2021
Orbit: 451 x 503 km, 97.2° (Epoch: 24 February)

Event Time Altitude Azimuth Distance (km) Brightness Sun altitude
Rises 06:28:09 0° 350° (N) 2,483 9.9 -7.7°
Reaches altitude 10° 06:31:06 10° 322° (NW) 1,596 8.7 -7.2°
Maximum altitude 06:32:42 13° 294° (WNW) 1,420 8.3 -6.9°
Drops below altitude 10° 06:34:18 10° 265° (W) 1,585 8.6 -6.6°
Sets 06:37:13 0° 237° (WSW) 2,450 9.8 -6.1°
